Location: Saint Louis
(38.6272°N, 90.1978°W)
Time: 07:06:41
(UTC-05:00)

Tiangong 1 - Visible Passes

Search period start: 01 October 2016 00:00
Search period end: 11 October 2016 00:00
Orbit: 358 x 378 km, 42.8° (Epoch: 01 October)

Date Brightness Start Highest point End Pass type
(mag) Time Alt. Az. Time Alt. Az. Time Alt. Az.
01 Oct 3.4 04:52:48 23° ENE 04:52:48 23° ENE 04:54:17 10° ENE visible
01 Oct 0.9 06:24:58 10° WNW 06:27:59 81° SSW 06:31:01 10° ESE visible
02 Oct 1.3 05:23:03 58° N 05:23:06 59° NNE 05:26:06 10° E visible
03 Oct 1.1 05:53:20 29° W 05:54:34 55° SSW 05:57:32 10° SE visible
04 Oct 3.8 04:51:47 17° ESE 04:51:47 17° ESE 04:52:38 10° ESE visible
04 Oct 2.8 06:23:41 11° W 06:25:43 18° SW 06:27:54 10° SSE visible
05 Oct 2.8 05:22:11 23° SSE 05:22:11 23° SSE 05:23:41 10° SE visible
06 Oct 3.4 05:52:39 11° SSW 05:52:39 11° SSW 05:53:05 10° SSW visible
